Location: Central Coast NSW, Australia
(33.2407°S, 151.4316°E)
Time: 09:39:47
(UTC+10:00)

N. Korean satellite - Pass Details

Date: 27 March 2019
Orbit: 458 x 508 km, 97.2° (Epoch: 25 April)

Event Time Altitude Azimuth Distance (km) Brightness Sun altitude
Rises 06:01:58 0° 24° (NNE) 2,599 10.5 -13.4°
Reaches altitude 10° 06:04:04 10° 30° (NNE) 1,726 9.7 -12.9°
Maximum altitude 06:07:40 48° 104° (ESE) 685 7.8 -12.2°
Drops below altitude 10° 06:11:19 10° 179° (S) 1,755 9.5 -11.4°
Sets 06:13:29 0° 184° (S) 2,648 10.3 -11.0°
